Location: Newark
(51.3318°N, 0.0053°E)
Time: 07:30:20
(UTC+00:00)

Sep Motor Cover - Visible Passes

Search period start: 21 May 2024 00:00
Search period end: 31 May 2024 00:00
Orbit: 663 x 832 km, 71.0° (Epoch: 21 May)

Date Brightness Start Highest point End Pass type
(mag) Time Alt. Az. Time Alt. Az. Time Alt. Az.
21 May 9.5 01:27:45 10° NW 01:29:20 11° NNW 01:30:54 10° N visible
21 May 7.0 21:14:15 10° S 21:19:33 44° ESE 21:24:46 10° NE visible
21 May 7.9 22:56:22 10° WSW 23:01:39 41° NW 23:06:49 10° NNE visible
22 May 9.3 00:42:20 10° WNW 00:45:10 14° NNW 00:47:58 10° N visible
22 May 7.6 20:31:44 10° SSE 20:36:22 27° ESE 20:40:56 10° NE visible
22 May 7.1 22:12:28 10° SW 22:18:01 62° WNW 22:23:29 10° NNE visible
22 May 9.2 23:57:20 10° WNW 00:01:08 18° NNW 00:04:52 10° N visible
23 May 6.6 21:28:55 10° SSW 21:34:32 84° ESE 21:40:03 10° NNE visible
23 May 8.8 23:12:39 10° W 23:17:12 25° NW 23:21:41 10° NNE visible
24 May 9.8 01:00:22 10° NNW 01:01:15 10° NNW 01:02:07 10° N visible
24 May 6.8 20:45:46 10° S 20:51:12 52° ESE 20:56:30 10° NE visible
24 May 8.2 22:28:17 10° WSW 22:33:24 36° NW 22:38:25 10° NNE visible
25 May 9.5 00:14:38 10° NW 00:17:04 13° NNW 00:19:27 10° N visible
25 May 7.4 21:44:17 10° SW 21:49:45 54° NW 21:55:06 10° NNE visible
25 May 9.4 23:29:29 10° WNW 23:32:58 17° NNW 23:36:24 10° N visible
26 May 9.7 02:59:58 10° N 03:02:06 12° NNE 03:04:11 10° NE visible
26 May 6.7 21:00:37 10° SSW 21:06:14 85° WNW 21:11:43 10° NNE visible
26 May 9.1 22:44:42 10° W 22:49:00 23° NW 22:53:14 10° NNE visible
27 May 8.6 22:00:14 10° WSW 22:05:10 32° NW 22:10:00 10° NNE visible
27 May 9.8 23:46:59 10° NW 23:48:56 12° NNW 23:50:53 10° N visible
28 May 7.8 21:16:06 10° SW 21:21:29 47° NW 21:26:42 10° NNE visible
28 May 9.6 23:01:41 10° WNW 23:04:49 15° NNW 23:07:54 10° N visible
29 May 9.8 02:31:32 10° N 02:33:57 13° NNE 02:36:20 10° NE visible
29 May 9.4 22:16:46 10° W 22:20:49 20° NW 22:24:46 10° N visible
30 May 10.2 01:48:57 10° N 01:49:47 10° NNE 01:50:37 10° NNE visible
30 May 8.9 21:32:12 10° WSW 21:36:57 28° NW 21:41:34 10° NNE visible
30 May 10.1 23:19:28 10° NNW 23:20:49 11° NNW 23:22:10 10° N visible
